Flag for Germany Weather past 2 weeks in Gronau (Westfalen), North Rhine-Westphalia, Germany

Now
68 °F

Overcast.


Feels Like: 68 °F
Forecast: 54 / 68 °F
Wind: 2 mph from Southwest

Location: Twenthe

Current Time: Oct 2, 2014 at 5:01:20 PM

Latest Report: Oct 2, 2014 at 4:00 PM


Visibility: 8 mi

Pressure: 30.36 "Hg

Humidity: 73%

Dew point: 59 °F

Location of Gronau (Westfalen)Location

Historic Weather in Gronau (Westfalen) — Graph

°F

Gronau (Westfalen) temperature yesterday

Maximum temperature yesterday: 64 °F (at 4:00 PM)
Minimum temperature yesterday: 50 °F (at 3:00 AM)
Average temperature yesterday: 58 °F

Past Weeks' High & Low Weather Summary

 TemperatureHumidityPressure
High78 °F (Sep 18, 4:00 PM)100% (Sep 19, 5:00 AM)30.39 "Hg (Sep 19, 5:00 AM)
Low39 °F (Sep 23, 8:00 AM)46% (Sep 22, 4:00 PM)29.80 "Hg (Sep 24, 5:00 PM)
Average59 °F86%30.10 "Hg
* Reported Sep 17 3:00 PM — Oct 2 3:00 PM, Gronau (Westfalen), Weather by CustomWeather, © 2014

Note: Actual official high and low records may vary slightly from our data, if they occured in-between our weather recording intervals... More about our weather records

Advertising

Gronau (Westfalen) weather history for previous 24 hours

 ConditionsComfort  
Time TempWeatherWind HumidityBarometerVisibility
3:00 PM
Oct 2
69 °FOvercast.2 mph73%30.37 "Hg9 mi
2:00 PM68 °FOvercast.N/A74%30.37 "Hg6 mi
1:00 PM67 °FOvercast.2 mph76%30.38 "Hg5 mi
12:00 PM67 °FFog.N/A80%30.38 "Hg4 mi
11:00 AM64 °FFog.1 mph83%30.39 "Hg3 mi
10:00 AM62 °FFog.1 mph88%30.38 "Hg3 mi
9:00 AM60 °FOvercast.1 mph92%30.38 "Hg3 mi
8:00 AM57 °FFog.No wind98%30.37 "Hg1 mi
7:00 AM58 °FFog.1 mph96%30.36 "Hg2 mi
6:00 AM59 °FFog.1 mph93%30.35 "Hg3 mi
5:00 AM59 °FFog.1 mph92%30.34 "Hg3 mi
4:00 AM60 °FFog.N/A88%30.34 "Hg3 mi
3:00 AM61 °FFog.2 mph87%30.35 "Hg3 mi
2:00 AM61 °FFog.1 mph88%30.35 "Hg3 mi
1:00 AM60 °FFog.1 mph91%30.34 "Hg3 mi
12:00 AM60 °FFog.N/A92%30.34 "Hg2 mi
11:00 PM
Oct 1
60 °FFog.N/A92%30.34 "Hg2 mi
10:00 PM60 °FFog.1 mph93%30.33 "Hg2 mi
9:00 PM59 °FFog.1 mph96%30.32 "Hg2 mi
8:00 PM59 °FFog.1 mph92%30.32 "Hg3 mi
7:00 PM61 °FFog.1 mph88%30.32 "Hg3 mi
6:00 PM64 °FFog.1 mph81%30.31 "Hg4 mi
5:00 PM64 °FFog.2 mph80%30.31 "Hg4 mi
Weather by CustomWeather, © 2014

See weather overviewHow to use our weather pages